This is the latest recevied weather packets stored in our database for station/object KW6V-15. If no packets are shown the sender has not sent any weather packets the latest 10 day(s).
| Time | Temp. | Humidity | Pressure | Rain* | Wind** | Luminosity | Snow |
|---|---|---|---|---|---|---|---|
| 1777726842 | 10° C | 92% | 1011.9 hPa | 0 mm | - | - | - |
| 1777725034 | 10° C | 92% | 1012.2 hPa | 0 mm | - | - | - |
| 1777723246 | 9.44° C | 91% | 1012.4 hPa | 0 mm | - | - | - |
| 1777721420 | 10° C | 91% | 1012.3 hPa | 0 mm | - | - | - |
| 1777719620 | 10.56° C | 91% | 1012.3 hPa | 0 mm | - | - | - |
| 1777717843 | 11.11° C | 91% | 1012.4 hPa | 0 mm | - | - | - |
| 1777716068 | 11.11° C | 91% | 1012.6 hPa | 0 mm | - | - | - |
| 1777714248 | 11.11° C | 91% | 1013.1 hPa | 0 mm | - | - | - |
| 1777712439 | 10.56° C | 91% | 1013.2 hPa | 0 mm | - | - | - |
| 1777710629 | 11.11° C | 91% | 1013.3 hPa | 0 mm | - | - | - |
| 1777708838 | 11.11° C | 91% | 1013.3 hPa | 0 mm | - | - | - |
| 1777707040 | 11.11° C | 90% | 1013.5 hPa | 0 mm | - | - | - |
| 1777705227 | 11.11° C | 90% | 1013.5 hPa | 0 mm | - | - | - |
| 1777703435 | 11.11° C | 90% | 1013.5 hPa | 0 mm | - | - | - |
| 1777701655 | 11.11° C | 90% | 1013.9 hPa | 0 mm | - | - | - |
| 1777699836 | 11.11° C | 89% | 1014 hPa | 0 mm | - | - | - |
| 1777698057 | 11.11° C | 89% | 1014.1 hPa | 0 mm | - | - | - |
| 1777696355 | 11.11° C | 89% | 1013.9 hPa | 0 mm | - | - | - |
| 1777694430 | 11.67° C | 88% | 1013.4 hPa | 0 mm | - | - | - |
| 1777692611 | 11.67° C | 87% | 1013.4 hPa | 0 mm | - | - | - |
| 1777690858 | 12.22° C | 86% | 1013.4 hPa | 0 mm | - | - | - |
| 1777689020 | 12.22° C | 85% | 1013.3 hPa | 0 mm | - | - | - |
| 1777687230 | 12.78° C | 84% | 1013.5 hPa | 0 mm | - | - | - |
| 1777685444 | 13.89° C | 83% | 1013.6 hPa | 0 mm | - | - | - |
| 1777683689 | 13.89° C | 81% | 1013.6 hPa | 0 mm | - | - | - |
* Rain latest hour (hover to see other rain measurements)
** Current wind speed in m/s (hover to see current wind gust speed)